STARLINK-11239 [DTC]

Last updated on Tue Oct 01 2024 00:02:04 GMT+0000 (Coordinated Universal Time)

1 60924U 24155A 24274.35843356 .00006224 00000+0 41984-4 0 9997 2 60924 53.1539 51.6561 0001811 67.4388 292.6824 15.76738915 5886
UTC large
Height (km)
Speed (km/s)
/
Latitude / Longitude
Inclination (degrees)
Orbital Period (minutes)
Azimuth
Elevation
Range (km)
Doppler Factor

Next 0 passes for location: London (51.5072 / 0.1276)

Sorry there are no passes over London.